Papa, Hungary

5:29 PM CEST on April 25, 2017 (GMT +0200)
Papa

Weather History for LHPA - October, 2012

Change the Weather History Date:

Tuesday, October 2, 2012

  Actual Average Record
Temperature  
Mean Temperature 58 °F -  
Max Temperature 60 °F - - ()
Min Temperature 53 °F - - ()
Degree Days  
Heating Degree Days 8    
Growing Degree Days 8 (Base 50)    
Moisture  
Dew Point 57 °F    
Average Humidity 94    
Maximum Humidity 100    
Minimum Humidity 88    
Precipitation  
Precipitation 0.00 in - - ()
Sea Level Pressure  
Sea Level Pressure 30.06 in    
Wind  
Wind Speed 3 mph ()    
Max Wind Speed 9 mph    
Max Gust Speed -    
Visibility 3.7 miles    
Events Fog , Rain , Thunderstorm    
T = Trace of Precipitation, MM = Missing Value Source: Averaged Metar Reports

Daily Weather History Graph

Daily Weather History Graph

Search for Another Location

Airport or City:

Trip Planner

Search our weather history database for the weather conditions in past years. The results will help you decide how hot, cold, wet, or windy it might be!

Date:

Astronomy

Oct. 02, 2012 Rise Set
Actual Time 6:50 AM CEST 6:27 PM CEST
Civil Twilight 6:20 AM CEST 6:57 PM CEST
Nautical Twilight 5:44 AM CEST 7:32 PM CEST
Astronomical Twilight 5:08 AM CEST 8:08 PM CEST
Moon 7:15 PM CEST (10/2) 9:12 AM CEST (10/2)
Length of Visible Light 12h 37m
Length of Day
11h 36m
Waning Gibbous, 95% of the Moon is Illuminated
Oct 2
Waning Gibbous
Oct 8
Last Quarter
Oct 15
New
Oct 22
First Quarter
Oct 29
Full

Hourly Weather History & Observations

Time (CEST) Temp. Dew Point Humidity Pressure Visibility Wind Dir Wind Speed Gust Speed Precip Events Conditions
12:15 AM 57.2 °F 57.2 °F 100% 30.04 in 3.7 mi North 2.2 mph - N/A   Unknown
12:16 AM 57.2 °F 57.2 °F 100% 30.04 in 3.1 mi North 2.2 mph - N/A   Mostly Cloudy
12:45 AM 59.0 °F 57.2 °F 94% 30.04 in 3.1 mi North 2.2 mph - N/A   Mostly Cloudy
1:15 AM 55.4 °F 55.4 °F 100% 30.06 in 3.1 mi Calm Calm - N/A   Mostly Cloudy
1:45 AM 57.2 °F 57.2 °F 100% 30.06 in 3.1 mi Calm Calm - N/A   Mostly Cloudy
2:15 AM 57.2 °F 57.2 °F 100% 30.06 in 3.1 mi Calm Calm - N/A   Mostly Cloudy
2:45 AM 57.2 °F 55.4 °F 94% 30.06 in 3.1 mi NNE 2.2 mph - N/A   Mostly Cloudy
3:15 AM 57.2 °F 53.6 °F 88% 30.06 in 3.1 mi NNW 4.5 mph - N/A   Mostly Cloudy
3:45 AM - - N/A% - 6.2 mi Variable 4.5 mph - N/A   Overcast
4:15 AM 57.2 °F 55.4 °F 94% 30.06 in 3.1 mi North 2.2 mph - N/A Rain Light Rain
4:40 AM 57.2 °F 55.4 °F 94% 30.09 in 3.1 mi WSW 2.2 mph - N/A Rain , Thunderstorm Light Thunderstorms and Rain
4:45 AM 57.2 °F 57.2 °F 100% 30.09 in 3.1 mi NW 2.2 mph - N/A Rain , Thunderstorm Light Thunderstorms and Rain
5:15 AM 57.2 °F 57.2 °F 100% 30.06 in 2.5 mi WNW 2.2 mph - N/A Rain , Thunderstorm Light Thunderstorms and Rain
5:37 AM 57.2 °F 57.2 °F 100% 30.06 in 2.5 mi East 6.7 mph - N/A Rain Light Rain
5:45 AM 57.2 °F 57.2 °F 100% 30.06 in 2.5 mi ESE 2.2 mph - N/A Rain Light Rain
6:15 AM 57.2 °F 57.2 °F 100% 30.06 in 2.5 mi Calm Calm - N/A Rain Light Rain
6:45 AM - - N/A% - 1.9 mi Variable 4.5 mph - N/A   Overcast
7:10 AM 57.2 °F 57.2 °F 100% 30.06 in 3.7 mi Calm Calm - N/A   Mostly Cloudy
7:15 AM 57.2 °F 57.2 °F 100% 30.06 in 3.7 mi Calm Calm - N/A   Mostly Cloudy
7:45 AM 57.2 °F 57.2 °F 100% 30.06 in 3.7 mi Calm Calm - N/A   Mostly Cloudy
8:15 AM 59.0 °F 57.2 °F 94% 30.06 in 3.7 mi North 4.5 mph - N/A   Mostly Cloudy
8:45 AM 59.0 °F 57.2 °F 94% 30.06 in 5.0 mi NE 2.2 mph - N/A   Mostly Cloudy
9:13 AM 59.0 °F 57.2 °F 94% 30.06 in 3.1 mi NNE 4.5 mph - N/A Rain Light Rain
9:15 AM 59.0 °F 57.2 °F 94% 30.06 in 3.1 mi NNE 4.5 mph - N/A Rain Light Rain
9:45 AM - - N/A% - 6.2 mi North 6.7 mph - N/A   Overcast
10:15 AM 59.0 °F 57.2 °F 94% 30.06 in 3.1 mi NNE 4.5 mph - N/A Rain Light Rain
10:45 AM 60.8 °F 57.2 °F 88% 30.06 in 5.0 mi North 4.5 mph - N/A Rain Light Rain
10:54 AM 60.8 °F 59.0 °F 94% 30.06 in 5.0 mi North 4.5 mph - N/A   Overcast
11:15 AM 60.8 °F 57.2 °F 88% 30.06 in 5.0 mi NNW 6.7 mph - N/A   Overcast
11:42 AM 60.8 °F 57.2 °F 88% 30.09 in 1.6 mi NW 4.5 mph - N/A Rain Rain Showers
11:45 AM 59.0 °F 57.2 °F 94% 30.09 in 1.6 mi NNW 4.5 mph - N/A Rain Rain Showers
12:15 PM 59.0 °F 57.2 °F 94% 30.09 in 1.6 mi NNW 6.7 mph - N/A Rain Rain Showers
12:45 PM 57.2 °F 57.2 °F 100% 30.09 in 1.9 mi NNW 6.7 mph - N/A Rain Light Rain Showers
1:15 PM 57.2 °F 57.2 °F 100% 30.09 in 1.2 mi NNW 8.9 mph - N/A Rain Rain Showers
1:45 PM 59.0 °F 57.2 °F 94% 30.06 in 1.9 mi NNW 6.7 mph - N/A Rain Light Rain
2:07 PM 59.0 °F 57.2 °F 94% 30.06 in 5.0 mi North 8.9 mph - N/A   Overcast
2:45 PM 60.8 °F 57.2 °F 88% 30.06 in 5.0 mi North 6.7 mph - N/A   Overcast
3:15 PM 60.8 °F 57.2 °F 88% 30.06 in 5.0 mi North 4.5 mph - N/A   Overcast
3:45 PM - - N/A% - 5.0 mi Variable 4.5 mph - N/A   Overcast
4:15 PM 60.8 °F 57.2 °F 88% 30.06 in 5.0 mi NNE 4.5 mph - N/A   Overcast
4:45 PM 60.8 °F 59.0 °F 94% 30.06 in 5.0 mi North 4.5 mph - N/A   Overcast
5:15 PM 60.8 °F 57.2 °F 88% 30.06 in 5.0 mi North 6.7 mph - N/A   Overcast
5:45 PM 60.8 °F 57.2 °F 88% 30.06 in 5.0 mi North 4.5 mph - N/A   Overcast
6:15 PM 59.0 °F 57.2 °F 94% 30.06 in 5.0 mi North 2.2 mph - N/A   Overcast
6:45 PM - - N/A% - 3.1 mi Variable 4.5 mph - N/A Rain Rain
7:15 PM 57.2 °F 57.2 °F 100% 30.06 in 5.0 mi NW 4.5 mph - N/A   Unknown
7:45 PM 59.0 °F 55.4 °F 88% 30.06 in 5.0 mi NNW 4.5 mph - N/A   Unknown
8:15 PM 59.0 °F 55.4 °F 88% 30.06 in 5.0 mi NNW 6.7 mph - N/A   Unknown
8:45 PM 57.2 °F 55.4 °F 94% 30.06 in 5.0 mi NNW 6.7 mph - N/A   Unknown
9:15 PM 57.2 °F 55.4 °F 94% 30.06 in - NNW 4.5 mph - N/A   Clear
9:45 PM - - N/A% - 3.1 mi NW 4.5 mph - N/A Fog Fog
10:15 PM 57.2 °F 53.6 °F 88% 30.06 in - NNW 6.7 mph - N/A   Clear
10:45 PM 55.4 °F 51.8 °F 88% 30.06 in - NNW 4.5 mph - N/A   Clear
11:15 PM 55.4 °F 51.8 °F 88% 30.06 in - WNW 4.5 mph - N/A   Clear
11:45 PM 53.6 °F 51.8 °F 94% 30.06 in - WNW 4.5 mph - N/A   Clear